Volver al catálogo

ZQ-2E R/B

ActivoPO
NORAD 69095·ROCKET BODY·🇨🇳 China

Lanzado May 13, 2026 desde Jiuquan Satellite Launch Center

Loading…

Próximos Pases (próximas 24 horas)

TLE

ActualizadoSource: Space-Track

Época: Sep 14, 2026, 20:28 UTC

1 69095U 26105A   26257.85335907  .00231904 -73951-6  36971-3 0  9995
2 69095  88.9646 181.7219 0311993 310.4158  47.0258 15.52432327 18873

Sigue ZQ-2E R/B en tiempo real con AllMySat

Download on the App Store